{"data":{"norad_id":57939,"intl_designator":"2023-148E","name":"STARLINK-30714","alt_names":[],"object_type":"PAYLOAD","status":"ACTIVE","operator":null,"country":"US","launch_date":"2023-09-25","launch_site_code":"AFWTR","launch_vehicle":null,"mission":null,"orbit_class":"UNKNOWN","rcs_meters":null,"size_class":null,"mass_kg":null,"dimensions":null,"purposes":["comms"],"wikipedia_slug":null,"has_3d_model":false,"image_url":null,"decayed_at":null,"tle_current":{"epoch":"2026-09-20T12:33:01.677312Z","epoch_age_seconds":132475,"freshness":"FRESH","line1":"1 57939U 23148E   26263.52293608  .00048597  00000+0  12532-2 0  9992","line2":"2 57939  53.1518 196.9651 0006308  77.6649 282.5061 15.38710758168285","mean_motion":15.38710758,"eccentricity":0.0006308,"inclination_deg":53.1518,"raan_deg":196.9651,"arg_perigee_deg":77.6649,"mean_anomaly_deg":282.5061,"bstar":0.0012532,"rev_number":16828,"period_min":93.584839939099,"perigee_km":445.61354173518,"apogee_km":454.22781930493,"semimajor_km":6828.0576805201,"source":"CELESTRAK","updated_at":"2026-09-21T09:00:33.744839Z"}}}